Time,TemperatureF,DewpointF,PressureIn,WindDirection,WindDirectionDegrees,WindSpeedMPH,WindSpeedGustMPH,Humidity,HourlyPrecipIn,Conditions,Clouds,dailyrainin,SoftwareType,DateUTC
2013-03-16 00:00:00,44.8,22.3,30.12,NW,315,0.0,0.0,40,0.00,,,0.00,meteohub,2013-03-16 04:00:00,
2013-03-16 00:05:00,44.8,22.3,30.11,NW,315,0.0,0.0,40,0.00,,,0.00,meteohub,2013-03-16 04:05:00,
2013-03-16 00:11:00,44.4,22.5,30.12,NW,315,0.0,0.0,41,0.00,,,0.00,meteohub,2013-03-16 04:11:00,
2013-03-16 00:16:00,44.4,23.2,30.11,NW,315,0.0,0.0,42,0.00,,,0.00,meteohub,2013-03-16 04:16:00,
2013-03-16 00:21:00,44.2,23.0,30.12,NW,315,0.0,0.0,42,0.00,,,0.00,meteohub,2013-03-16 04:21:00,
2013-03-16 00:26:00,44.1,22.8,30.11,NW,315,0.0,0.0,42,0.00,,,0.00,meteohub,2013-03-16 04:26:00,
2013-03-16 00:31:00,43.9,22.6,30.11,NW,315,0.0,0.0,42,0.00,,,0.00,meteohub,2013-03-16 04:31:00,
2013-03-16 00:36:00,43.9,22.6,30.11,NW,315,0.0,0.0,42,0.00,,,0.00,meteohub,2013-03-16 04:36:00,
2013-03-16 00:42:00,43.7,23.0,30.11,NW,315,0.0,0.0,43,0.00,,,0.00,meteohub,2013-03-16 04:42:00,
2013-03-16 00:47:00,43.7,23.0,30.11,NW,315,0.0,0.0,43,0.00,,,0.00,meteohub,2013-03-16 04:47:00,
2013-03-16 00:52:00,43.5,22.8,30.11,NW,315,0.0,0.0,43,0.00,,,0.00,meteohub,2013-03-16 04:52:00,
2013-03-16 00:57:00,43.3,22.6,30.11,NW,315,0.0,0.0,43,0.00,,,0.00,meteohub,2013-03-16 04:57:00,
2013-03-16 01:02:00,43.2,22.5,30.11,NW,315,0.0,0.0,43,0.00,,,0.00,meteohub,2013-03-16 05:02:00,
2013-03-16 01:07:00,43.2,22.5,30.11,NW,315,0.0,0.0,43,0.00,,,0.00,meteohub,2013-03-16 05:07:00,
2013-03-16 01:12:00,43.0,22.8,30.12,NW,315,0.0,0.0,44,0.00,,,0.00,meteohub,2013-03-16 05:12:00,
2013-03-16 01:17:00,42.8,22.8,30.11,NW,315,0.0,0.0,44,0.00,,,0.00,meteohub,2013-03-16 05:17:00,
2013-03-16 01:22:00,42.6,22.6,30.11,NW,315,0.0,0.0,44,0.00,,,0.00,meteohub,2013-03-16 05:22:00,
2013-03-16 01:27:00,42.4,23.0,30.11,NW,315,0.0,0.0,45,0.00,,,0.00,meteohub,2013-03-16 05:27:00,
2013-03-16 01:32:00,42.4,23.0,30.11,NW,315,0.0,0.0,45,0.00,,,0.00,meteohub,2013-03-16 05:32:00,
2013-03-16 01:37:00,42.3,22.8,30.11,NW,315,0.0,0.0,45,0.00,,,0.00,meteohub,2013-03-16 05:37:00,
2013-03-16 01:43:00,42.3,23.4,30.11,NW,315,0.0,0.0,46,0.00,,,0.00,meteohub,2013-03-16 05:43:00,
2013-03-16 01:48:00,42.1,23.2,30.12,NW,315,0.0,0.0,46,0.00,,,0.00,meteohub,2013-03-16 05:48:00,
2013-03-16 01:53:00,41.9,23.0,30.12,NW,315,0.0,0.0,46,0.00,,,0.00,meteohub,2013-03-16 05:53:00,
2013-03-16 01:58:00,41.7,22.8,30.11,NW,315,0.0,0.0,46,0.00,,,0.00,meteohub,2013-03-16 05:58:00,
2013-03-16 02:03:00,41.7,22.8,30.11,NW,315,0.0,0.0,46,0.00,,,0.00,meteohub,2013-03-16 06:03:00,
2013-03-16 02:08:00,41.7,23.4,30.11,NW,315,0.0,0.0,47,0.00,,,0.00,meteohub,2013-03-16 06:08:00,
2013-03-16 02:13:00,41.7,23.4,30.11,NW,315,0.0,0.0,47,0.00,,,0.00,meteohub,2013-03-16 06:13:00,
2013-03-16 02:18:00,41.5,23.2,30.11,NW,315,0.0,0.0,47,0.00,,,0.00,meteohub,2013-03-16 06:18:00,
2013-03-16 02:23:00,41.5,23.2,30.11,NW,315,0.0,0.0,47,0.00,,,0.00,meteohub,2013-03-16 06:23:00,
2013-03-16 02:28:00,41.4,23.0,30.11,NW,315,0.0,0.0,47,0.00,,,0.00,meteohub,2013-03-16 06:28:00,
2013-03-16 02:33:00,41.2,22.8,30.11,NW,315,0.0,0.0,47,0.00,,,0.00,meteohub,2013-03-16 06:33:00,
2013-03-16 02:38:00,41.0,22.6,30.11,NW,315,0.0,0.0,47,0.00,,,0.00,meteohub,2013-03-16 06:38:00,
2013-03-16 02:43:00,40.8,22.5,30.12,NW,315,0.0,0.0,47,0.00,,,0.00,meteohub,2013-03-16 06:43:00,
2013-03-16 02:48:00,40.8,23.0,30.12,NW,315,0.0,0.0,48,0.00,,,0.00,meteohub,2013-03-16 06:48:00,
2013-03-16 02:53:00,40.8,23.0,30.12,NW,315,0.0,0.0,48,0.00,,,0.00,meteohub,2013-03-16 06:53:00,
2013-03-16 02:58:00,40.8,23.5,30.12,NW,315,0.0,0.0,49,0.00,,,0.00,meteohub,2013-03-16 06:58:00,
2013-03-16 03:04:00,40.8,23.5,30.12,NW,315,0.0,0.0,49,0.00,,,0.00,meteohub,2013-03-16 07:04:00,
2013-03-16 03:09:00,40.8,23.5,30.12,NW,315,0.0,0.0,49,0.00,,,0.00,meteohub,2013-03-16 07:09:00,
2013-03-16 03:14:00,40.8,23.5,30.12,NW,315,0.0,0.0,49,0.00,,,0.00,meteohub,2013-03-16 07:14:00,
2013-03-16 03:19:00,40.8,23.9,30.12,NW,315,0.0,0.0,50,0.00,,,0.00,meteohub,2013-03-16 07:19:00,
2013-03-16 03:24:00,40.8,23.9,30.12,NW,315,0.0,0.0,50,0.00,,,0.00,meteohub,2013-03-16 07:24:00,
2013-03-16 03:29:00,40.8,23.9,30.12,NW,315,0.0,0.0,50,0.00,,,0.00,meteohub,2013-03-16 07:29:00,
2013-03-16 03:34:00,40.8,23.9,30.12,NW,315,0.0,0.0,50,0.00,,,0.00,meteohub,2013-03-16 07:34:00,
2013-03-16 03:39:00,40.8,23.9,30.12,NW,315,0.0,0.0,50,0.00,,,0.00,meteohub,2013-03-16 07:39:00,
2013-03-16 03:44:00,40.8,23.9,30.11,NW,315,0.0,0.0,50,0.00,,,0.00,meteohub,2013-03-16 07:44:00,
2013-03-16 03:49:00,41.0,24.1,30.11,NW,315,0.0,0.0,50,0.00,,,0.00,meteohub,2013-03-16 07:49:00,
2013-03-16 03:54:00,40.8,23.9,30.11,NW,315,0.0,0.0,50,0.00,,,0.00,meteohub,2013-03-16 07:54:00,
2013-03-16 03:59:00,40.8,23.9,30.11,NW,315,0.0,0.0,50,0.00,,,0.00,meteohub,2013-03-16 07:59:00,
2013-03-16 04:04:00,40.8,23.9,30.11,NW,315,0.0,0.0,50,0.00,,,0.00,meteohub,2013-03-16 08:04:00,
2013-03-16 04:09:00,40.6,23.7,30.11,NW,315,0.0,0.0,50,0.00,,,0.00,meteohub,2013-03-16 08:09:00,
2013-03-16 04:14:00,40.6,23.7,30.11,NW,315,0.0,0.0,50,0.00,,,0.00,meteohub,2013-03-16 08:14:00,
2013-03-16 04:19:00,40.5,23.7,30.11,NW,315,0.0,0.0,50,0.00,,,0.00,meteohub,2013-03-16 08:19:00,
2013-03-16 04:24:00,40.5,23.7,30.11,NW,315,0.0,0.0,50,0.00,,,0.00,meteohub,2013-03-16 08:24:00,
2013-03-16 04:29:00,40.6,23.7,30.10,NW,315,0.0,0.0,50,0.00,,,0.00,meteohub,2013-03-16 08:29:00,
2013-03-16 04:34:00,40.5,24.1,30.10,NW,315,0.0,0.0,51,0.00,,,0.00,meteohub,2013-03-16 08:34:00,
2013-03-16 04:40:00,40.5,24.1,30.10,NW,315,0.0,0.0,51,0.00,,,0.00,meteohub,2013-03-16 08:40:00,
2013-03-16 04:45:00,40.3,23.9,30.10,NW,315,0.0,0.0,51,0.00,,,0.00,meteohub,2013-03-16 08:45:00,
2013-03-16 04:50:00,40.3,23.9,30.09,NW,315,0.0,0.0,51,0.00,,,0.00,meteohub,2013-03-16 08:50:00,
2013-03-16 04:55:00,40.3,23.9,30.09,NW,315,0.0,0.0,51,0.00,,,0.00,meteohub,2013-03-16 08:55:00,
2013-03-16 05:00:00,40.3,23.9,30.09,NW,315,0.0,0.0,51,0.00,,,0.00,meteohub,2013-03-16 09:00:00,
2013-03-16 05:05:00,40.3,23.9,30.09,NW,315,0.0,0.0,51,0.00,,,0.00,meteohub,2013-03-16 09:05:00,
2013-03-16 05:10:00,40.3,23.9,30.10,NW,315,0.0,0.0,51,0.00,,,0.00,meteohub,2013-03-16 09:10:00,
2013-03-16 05:15:00,40.3,24.4,30.10,NW,315,0.0,0.0,52,0.00,,,0.00,meteohub,2013-03-16 09:15:00,
2013-03-16 05:20:00,40.3,24.4,30.09,NW,315,0.0,0.0,52,0.00,,,0.00,meteohub,2013-03-16 09:20:00,
2013-03-16 05:25:00,40.3,24.4,30.10,NW,315,0.0,0.0,52,0.00,,,0.00,meteohub,2013-03-16 09:25:00,
2013-03-16 05:30:00,40.3,24.4,30.10,NW,315,0.0,0.0,52,0.00,,,0.00,meteohub,2013-03-16 09:30:00,
2013-03-16 05:35:00,40.3,24.4,30.11,NW,315,0.0,0.0,52,0.00,,,0.00,meteohub,2013-03-16 09:35:00,
2013-03-16 05:40:00,40.3,24.4,30.10,NW,315,0.0,0.0,52,0.00,,,0.00,meteohub,2013-03-16 09:40:00,
2013-03-16 05:46:00,40.3,24.4,30.11,NW,315,0.0,0.0,52,0.00,,,0.00,meteohub,2013-03-16 09:46:00,
2013-03-16 05:51:00,40.1,24.3,30.11,NW,315,0.0,0.0,52,0.00,,,0.00,meteohub,2013-03-16 09:51:00,
2013-03-16 05:56:00,40.1,24.6,30.11,NW,315,0.0,0.0,53,0.00,,,0.00,meteohub,2013-03-16 09:56:00,
2013-03-16 06:01:00,39.9,24.4,30.11,NW,315,0.0,0.0,53,0.00,,,0.00,meteohub,2013-03-16 10:01:00,
2013-03-16 06:06:00,39.9,24.4,30.11,NW,315,0.0,0.0,53,0.00,,,0.00,meteohub,2013-03-16 10:06:00,
2013-03-16 06:11:00,39.9,24.4,30.11,NW,315,0.0,0.0,53,0.00,,,0.00,meteohub,2013-03-16 10:11:00,
2013-03-16 06:17:00,39.7,24.4,30.11,NW,315,0.0,0.0,53,0.00,,,0.00,meteohub,2013-03-16 10:17:00,
2013-03-16 06:22:00,39.7,24.4,30.11,NW,315,0.0,0.0,53,0.00,,,0.00,meteohub,2013-03-16 10:22:00,
2013-03-16 06:27:00,39.4,24.1,30.12,NW,315,0.0,0.0,53,0.00,,,0.00,meteohub,2013-03-16 10:27:00,
2013-03-16 06:32:00,39.2,23.9,30.12,NW,315,0.0,0.0,53,0.00,,,0.00,meteohub,2013-03-16 10:32:00,
2013-03-16 06:37:00,39.2,23.9,30.12,NW,315,0.0,0.0,53,0.00,,,0.00,meteohub,2013-03-16 10:37:00,
2013-03-16 06:42:00,39.2,23.9,30.12,NW,315,0.0,0.0,53,0.00,,,0.00,meteohub,2013-03-16 10:42:00,
2013-03-16 06:47:00,39.2,23.9,30.12,NW,315,0.0,0.0,53,0.00,,,0.00,meteohub,2013-03-16 10:47:00,
2013-03-16 06:52:00,39.2,23.9,30.12,NW,315,0.0,0.0,53,0.00,,,0.00,meteohub,2013-03-16 10:52:00,
2013-03-16 06:57:00,39.2,23.9,30.12,NW,315,0.0,0.0,53,0.00,,,0.00,meteohub,2013-03-16 10:57:00,
2013-03-16 07:02:00,39.2,23.9,30.12,NW,315,0.0,0.0,53,0.00,,,0.00,meteohub,2013-03-16 11:02:00,
2013-03-16 07:07:00,39.2,23.9,30.12,NW,315,0.0,0.0,53,0.00,,,0.00,meteohub,2013-03-16 11:07:00,
2013-03-16 07:12:00,39.0,24.1,30.13,NW,315,0.0,0.0,54,0.00,,,0.00,meteohub,2013-03-16 11:12:00,
2013-03-16 07:17:00,39.0,24.1,30.13,NW,315,0.0,0.0,54,0.00,,,0.00,meteohub,2013-03-16 11:17:00,
2013-03-16 07:23:00,38.8,23.9,30.13,NW,315,0.0,0.0,54,0.00,,,0.00,meteohub,2013-03-16 11:23:00,
2013-03-16 07:28:00,38.8,23.9,30.13,NW,315,0.0,0.0,54,0.00,,,0.00,meteohub,2013-03-16 11:28:00,
2013-03-16 07:33:00,38.7,23.7,30.14,NW,315,0.0,0.0,54,0.00,,,0.00,meteohub,2013-03-16 11:33:00,
2013-03-16 07:38:00,38.5,23.5,30.13,NW,315,0.0,0.0,54,0.00,,,0.00,meteohub,2013-03-16 11:38:00,
2013-03-16 07:43:00,38.5,23.5,30.13,NW,315,0.0,0.0,54,0.00,,,0.00,meteohub,2013-03-16 11:43:00,
2013-03-16 07:48:00,38.5,23.5,30.14,NW,315,0.0,0.0,54,0.00,,,0.00,meteohub,2013-03-16 11:48:00,
2013-03-16 07:53:00,38.5,23.5,30.13,NW,315,0.0,0.0,54,0.00,,,0.00,meteohub,2013-03-16 11:53:00,
2013-03-16 07:58:00,38.7,24.3,30.14,NW,315,0.0,0.0,55,0.00,,,0.00,meteohub,2013-03-16 11:58:00,
2013-03-16 08:03:00,38.7,24.3,30.14,NW,315,0.0,0.0,55,0.00,,,0.00,meteohub,2013-03-16 12:03:00,
2013-03-16 08:08:00,38.8,24.4,30.13,NW,315,0.0,0.0,55,0.00,,,0.00,meteohub,2013-03-16 12:08:00,
2013-03-16 08:13:00,39.0,24.6,30.13,NW,315,0.0,0.0,55,0.00,,,0.00,meteohub,2013-03-16 12:13:00,
2013-03-16 08:18:00,39.2,24.8,30.13,NW,315,0.0,0.0,55,0.00,,,0.00,meteohub,2013-03-16 12:18:00,
2013-03-16 08:23:00,40.5,26.2,30.13,NW,315,0.0,0.0,56,0.00,,,0.00,meteohub,2013-03-16 12:23:00,
2013-03-16 08:29:00,41.5,27.7,30.12,NW,315,0.0,0.0,57,0.00,,,0.00,meteohub,2013-03-16 12:29:00,
2013-03-16 08:34:00,42.3,28.2,30.13,NW,315,0.0,0.0,57,0.00,,,0.00,meteohub,2013-03-16 12:34:00,
2013-03-16 08:39:00,43.2,29.1,30.12,NW,315,0.0,0.0,57,0.00,,,0.00,meteohub,2013-03-16 12:39:00,
2013-03-16 08:44:00,44.2,30.2,30.12,NW,315,0.0,0.0,57,0.00,,,0.00,meteohub,2013-03-16 12:44:00,
2013-03-16 08:49:00,45.7,31.5,30.12,NW,315,0.0,0.0,57,0.00,,,0.00,meteohub,2013-03-16 12:49:00,
2013-03-16 08:54:00,46.6,32.4,30.12,NW,315,0.0,0.0,57,0.00,,,0.00,meteohub,2013-03-16 12:54:00,
2013-03-16 08:59:00,48.0,33.3,30.12,NW,315,0.0,1.0,56,0.00,,,0.00,meteohub,2013-03-16 12:59:00,
2013-03-16 09:04:00,48.2,33.4,30.12,NW,315,1.0,1.0,56,0.00,,,0.00,meteohub,2013-03-16 13:04:00,
2013-03-16 09:09:00,50.0,32.9,30.12,NW,315,1.0,1.0,51,0.00,,,0.00,meteohub,2013-03-16 13:09:00,
2013-03-16 09:14:00,51.8,33.6,30.11,NW,315,1.0,1.0,49,0.00,,,0.00,meteohub,2013-03-16 13:14:00,
2013-03-16 09:19:00,53.6,33.1,30.11,NW,315,1.0,1.0,45,0.00,,,0.00,meteohub,2013-03-16 13:19:00,
2013-03-16 09:24:00,54.5,32.2,30.10,SW,225,2.0,2.0,42,0.00,,,0.00,meteohub,2013-03-16 13:24:00,
2013-03-16 09:29:00,55.0,28.9,30.10,NW,315,2.0,2.0,36,0.00,,,0.00,meteohub,2013-03-16 13:29:00,
2013-03-16 09:34:00,57.2,31.5,30.09,NW,315,0.0,2.0,37,0.00,,,0.00,meteohub,2013-03-16 13:34:00,
2013-03-16 09:39:00,59.7,26.8,30.09,West,270,2.0,2.0,28,0.00,,,0.00,meteohub,2013-03-16 13:39:00,
2013-03-16 09:44:00,60.6,14.7,30.08,South,180,4.0,4.0,16,0.00,,,0.00,meteohub,2013-03-16 13:44:00,
2013-03-16 09:50:00,61.7,5.4,30.08,West,270,5.0,7.0,10,0.00,,,0.00,meteohub,2013-03-16 13:50:00,
2013-03-16 09:55:00,62.2,62.2,30.08,West,270,4.0,7.0,0,0.00,,,0.00,meteohub,2013-03-16 13:55:00,
2013-03-16 10:00:00,63.0,63.0,30.08,West,270,4.0,7.0,0,0.00,,,0.00,meteohub,2013-03-16 14:00:00,
2013-03-16 10:05:00,63.0,63.0,30.07,West,270,4.0,6.0,0,0.00,,,0.00,meteohub,2013-03-16 14:05:00,
2013-03-16 10:10:00,63.5,63.5,30.07,West,270,3.0,6.0,0,0.00,,,0.00,meteohub,2013-03-16 14:10:00,
2013-03-16 10:15:00,64.4,64.4,30.07,SW,225,3.0,4.0,0,0.00,,,0.00,meteohub,2013-03-16 14:15:00,
2013-03-16 10:20:00,64.2,64.2,30.07,WSW,248,5.0,6.0,0,0.00,,,0.00,meteohub,2013-03-16 14:20:00,
2013-03-16 10:25:00,64.0,64.0,30.07,West,270,4.0,6.0,0,0.00,,,0.00,meteohub,2013-03-16 14:25:00,
2013-03-16 10:30:00,64.4,64.4,30.07,West,270,6.0,8.0,0,0.00,,,0.00,meteohub,2013-03-16 14:30:00,
2013-03-16 10:35:00,64.9,64.9,30.07,NW,315,8.0,8.0,0,0.00,,,0.00,meteohub,2013-03-16 14:35:00,
2013-03-16 10:40:00,65.1,65.1,30.07,South,180,4.0,8.0,0,0.00,,,0.00,meteohub,2013-03-16 14:40:00,
2013-03-16 10:46:00,65.7,65.7,30.06,West,270,2.0,8.0,0,0.00,,,0.00,meteohub,2013-03-16 14:46:00,
2013-03-16 10:51:00,67.8,67.8,30.06,South,180,4.0,8.0,0,0.00,,,0.00,meteohub,2013-03-16 14:51:00,
2013-03-16 10:56:00,68.4,68.4,30.06,South,180,6.0,6.0,0,0.00,,,0.00,meteohub,2013-03-16 14:56:00,
2013-03-16 11:01:00,68.5,68.5,30.05,West,270,3.0,6.0,0,0.00,,,0.00,meteohub,2013-03-16 15:01:00,
2013-03-16 11:06:00,68.5,68.5,30.05,West,270,3.0,6.0,0,0.00,,,0.00,meteohub,2013-03-16 15:06:00,
2013-03-16 11:12:00,69.1,69.1,30.04,NW,315,2.0,7.0,0,0.00,,,0.00,meteohub,2013-03-16 15:12:00,
2013-03-16 11:17:00,69.8,69.8,30.04,WSW,248,7.0,7.0,0,0.00,,,0.00,meteohub,2013-03-16 15:17:00,
2013-03-16 11:22:00,69.8,69.8,30.04,NW,315,4.0,10.0,0,0.00,,,0.00,meteohub,2013-03-16 15:22:00,
2013-03-16 11:27:00,70.9,70.9,30.04,SE,135,2.0,10.0,0,0.00,,,0.00,meteohub,2013-03-16 15:27:00,
2013-03-16 11:32:00,71.6,71.6,30.03,NE,45,6.0,10.0,0,0.00,,,0.00,meteohub,2013-03-16 15:32:00,
2013-03-16 11:37:00,72.3,72.3,30.03,West,270,6.0,8.0,0,0.00,,,0.00,meteohub,2013-03-16 15:37:00,
2013-03-16 11:43:00,72.5,72.5,30.02,West,270,4.0,8.0,0,0.00,,,0.00,meteohub,2013-03-16 15:43:00,
2013-03-16 11:48:00,72.0,72.0,30.03,WSW,248,6.0,8.0,0,0.00,,,0.00,meteohub,2013-03-16 15:48:00,
2013-03-16 11:53:00,72.3,72.3,30.02,West,270,8.0,8.0,0,0.00,,,0.00,meteohub,2013-03-16 15:53:00,
2013-03-16 11:58:00,73.2,73.2,30.01,NW,315,8.0,8.0,0,0.00,,,0.00,meteohub,2013-03-16 15:58:00,
2013-03-16 12:03:00,73.4,73.4,30.02,SE,135,4.0,8.0,0,0.00,,,0.00,meteohub,2013-03-16 16:03:00,
2013-03-16 12:08:00,72.1,72.1,30.02,West,270,3.0,8.0,0,0.00,,,0.00,meteohub,2013-03-16 16:08:00,
2013-03-16 12:13:00,72.3,72.3,30.01,West,270,6.0,8.0,0,0.00,,,0.00,meteohub,2013-03-16 16:13:00,
2013-03-16 12:18:00,72.3,72.3,30.01,West,270,4.0,7.0,0,0.00,,,0.00,meteohub,2013-03-16 16:18:00,
2013-03-16 12:23:00,72.0,72.0,30.01,West,270,5.0,8.0,0,0.00,,,0.00,meteohub,2013-03-16 16:23:00,
2013-03-16 12:28:00,72.7,72.7,30.01,West,270,6.0,9.0,0,0.00,,,0.00,meteohub,2013-03-16 16:28:00,
2013-03-16 12:33:00,73.8,73.8,30.00,NW,315,7.0,10.0,0,0.00,,,0.00,meteohub,2013-03-16 16:33:00,
2013-03-16 12:38:00,74.7,74.7,29.99,East,90,4.0,10.0,0,0.00,,,0.00,meteohub,2013-03-16 16:38:00,
2013-03-16 12:43:00,74.3,74.3,30.00,SW,225,9.0,9.0,0,0.00,,,0.00,meteohub,2013-03-16 16:43:00,
2013-03-16 12:48:00,74.5,74.5,30.00,North,0,8.0,14.0,0,0.00,,,0.00,meteohub,2013-03-16 16:48:00,
2013-03-16 12:53:00,73.9,73.9,29.99,NW,315,11.0,14.0,0,0.00,,,0.00,meteohub,2013-03-16 16:53:00,
2013-03-16 12:59:00,73.8,73.8,29.99,NW,315,11.0,14.0,0,0.00,,,0.00,meteohub,2013-03-16 16:59:00,
2013-03-16 13:04:00,73.8,73.8,30.00,South,180,11.0,11.0,0,0.00,,,0.00,meteohub,2013-03-16 17:04:00,
2013-03-16 13:09:00,73.4,73.4,29.99,NW,315,8.0,11.0,0,0.00,,,0.00,meteohub,2013-03-16 17:09:00,
2013-03-16 13:14:00,74.1,74.1,29.99,West,270,7.0,15.0,0,0.00,,,0.00,meteohub,2013-03-16 17:14:00,
2013-03-16 13:19:00,75.2,75.2,29.98,North,0,7.0,15.0,0,0.00,,,0.00,meteohub,2013-03-16 17:19:00,
2013-03-16 13:24:00,75.0,75.0,29.99,West,270,9.0,15.0,0,0.00,,,0.00,meteohub,2013-03-16 17:24:00,
2013-03-16 13:29:00,75.2,75.2,29.99,West,270,11.0,12.0,0,0.00,,,0.00,meteohub,2013-03-16 17:29:00,
2013-03-16 13:34:00,75.0,75.0,29.97,West,270,6.0,12.0,0,0.00,,,0.00,meteohub,2013-03-16 17:34:00,
2013-03-16 13:39:00,75.2,75.2,29.98,West,270,10.0,12.0,0,0.00,,,0.00,meteohub,2013-03-16 17:39:00,
2013-03-16 13:44:00,75.6,75.6,29.97,NW,315,12.0,15.0,0,0.00,,,0.00,meteohub,2013-03-16 17:44:00,
2013-03-16 13:49:00,74.8,74.8,29.97,NW,315,9.0,15.0,0,0.00,,,0.00,meteohub,2013-03-16 17:49:00,
2013-03-16 13:54:00,75.2,75.2,29.97,North,0,13.0,15.0,0,0.00,,,0.00,meteohub,2013-03-16 17:54:00,
2013-03-16 14:00:00,75.4,75.4,29.97,West,270,9.0,13.0,0,0.00,,,0.00,meteohub,2013-03-16 18:00:00,
2013-03-16 14:05:00,75.4,75.4,29.96,West,270,9.0,13.0,0,0.00,,,0.00,meteohub,2013-03-16 18:05:00,
2013-03-16 14:10:00,77.0,77.0,29.95,South,180,8.0,13.0,0,0.00,,,0.00,meteohub,2013-03-16 18:10:00,
2013-03-16 14:15:00,76.6,76.6,29.96,West,270,9.0,11.0,0,0.00,,,0.00,meteohub,2013-03-16 18:15:00,
2013-03-16 14:20:00,76.8,76.8,29.96,West,270,6.0,11.0,0,0.00,,,0.00,meteohub,2013-03-16 18:20:00,
2013-03-16 14:25:00,77.0,77.0,29.95,West,270,4.0,11.0,0,0.00,,,0.00,meteohub,2013-03-16 18:25:00,
2013-03-16 14:30:00,76.6,76.6,29.95,West,270,7.0,11.0,0,0.00,,,0.00,meteohub,2013-03-16 18:30:00,
2013-03-16 14:35:00,76.6,76.6,29.95,West,270,5.0,8.0,0,0.00,,,0.00,meteohub,2013-03-16 18:35:00,
2013-03-16 14:40:00,76.3,76.3,29.94,NW,315,6.0,13.0,0,0.00,,,0.00,meteohub,2013-03-16 18:40:00,
2013-03-16 14:45:00,76.1,76.1,29.94,West,270,10.0,13.0,0,0.00,,,0.00,meteohub,2013-03-16 18:45:00,
2013-03-16 14:50:00,75.2,75.2,29.94,NW,315,5.0,13.0,0,0.00,,,0.00,meteohub,2013-03-16 18:50:00,
2013-03-16 14:55:00,75.4,75.4,29.94,WSW,248,8.0,10.0,0,0.00,,,0.00,meteohub,2013-03-16 18:55:00,
2013-03-16 15:00:00,75.6,75.6,29.93,WNW,293,6.0,10.0,0,0.00,,,0.00,meteohub,2013-03-16 19:00:00,
2013-03-16 15:05:00,75.6,75.6,29.94,WNW,293,6.0,10.0,0,0.00,,,0.00,meteohub,2013-03-16 19:05:00,
2013-03-16 15:10:00,75.4,75.4,29.94,SW,225,8.0,10.0,0,0.00,,,0.00,meteohub,2013-03-16 19:10:00,
2013-03-16 15:15:00,75.7,75.7,29.94,West,270,7.0,8.0,0,0.00,,,0.00,meteohub,2013-03-16 19:15:00,
2013-03-16 15:20:00,75.9,75.9,29.94,West,270,6.0,11.0,0,0.00,,,0.00,meteohub,2013-03-16 19:20:00,
2013-03-16 15:25:00,75.9,75.9,29.93,NW,315,8.0,12.0,0,0.00,,,0.00,meteohub,2013-03-16 19:25:00,
2013-03-16 15:31:00,75.9,75.9,29.93,East,90,4.0,12.0,0,0.00,,,0.00,meteohub,2013-03-16 19:31:00,
2013-03-16 15:36:00,75.9,75.9,29.93,West,270,8.0,12.0,0,0.00,,,0.00,meteohub,2013-03-16 19:36:00,
2013-03-16 15:41:00,75.7,75.7,29.93,SW,225,5.0,11.0,0,0.00,,,0.00,meteohub,2013-03-16 19:41:00,
2013-03-16 15:46:00,75.7,75.7,29.93,West,270,9.0,11.0,0,0.00,,,0.00,meteohub,2013-03-16 19:46:00,
2013-03-16 15:51:00,75.6,75.6,29.92,SSW,203,4.0,13.0,0,0.00,,,0.00,meteohub,2013-03-16 19:51:00,
2013-03-16 15:56:00,75.7,75.7,29.93,NW,315,10.0,13.0,0,0.00,,,0.00,meteohub,2013-03-16 19:56:00,
2013-03-16 16:02:00,75.9,75.9,29.92,NW,315,4.0,13.0,0,0.00,,,0.00,meteohub,2013-03-16 20:02:00,
2013-03-16 16:07:00,75.9,75.9,29.92,NW,315,4.0,10.0,0,0.00,,,0.00,meteohub,2013-03-16 20:07:00,
2013-03-16 16:12:00,75.6,75.6,29.92,West,270,5.0,10.0,0,0.00,,,0.00,meteohub,2013-03-16 20:12:00,
2013-03-16 16:17:00,75.6,75.6,29.92,West,270,10.0,11.0,0,0.00,,,0.00,meteohub,2013-03-16 20:17:00,
2013-03-16 16:22:00,75.4,75.4,29.91,West,270,9.0,11.0,0,0.00,,,0.00,meteohub,2013-03-16 20:22:00,
2013-03-16 16:27:00,75.7,75.7,29.92,NW,315,6.0,11.0,0,0.00,,,0.00,meteohub,2013-03-16 20:27:00,
2013-03-16 16:32:00,76.1,76.1,29.92,West,270,8.0,13.0,0,0.00,,,0.00,meteohub,2013-03-16 20:32:00,
2013-03-16 16:37:00,76.1,76.1,29.92,NW,315,12.0,13.0,0,0.00,,,0.00,meteohub,2013-03-16 20:37:00,
2013-03-16 16:42:00,75.6,75.6,29.92,WSW,248,10.0,12.0,0,0.00,,,0.00,meteohub,2013-03-16 20:42:00,
2013-03-16 16:47:00,75.6,75.6,29.92,WSW,248,8.0,12.0,0,0.00,,,0.00,meteohub,2013-03-16 20:47:00,
2013-03-16 16:52:00,75.6,75.6,29.92,WSW,248,7.0,12.0,0,0.00,,,0.00,meteohub,2013-03-16 20:52:00,
2013-03-16 16:57:00,76.3,76.3,29.91,North,0,9.0,13.0,0,0.00,,,0.00,meteohub,2013-03-16 20:57:00,
2013-03-16 17:03:00,76.5,76.5,29.91,WSW,248,13.0,13.0,0,0.00,,,0.00,meteohub,2013-03-16 21:03:00,
2013-03-16 17:08:00,77.2,77.2,29.91,NW,315,8.0,13.0,0,0.00,,,0.00,meteohub,2013-03-16 21:08:00,
2013-03-16 17:13:00,76.6,76.6,29.92,NW,315,7.0,13.0,0,0.00,,,0.00,meteohub,2013-03-16 21:13:00,
2013-03-16 17:18:00,77.0,77.0,29.92,SW,225,8.0,13.0,0,0.00,,,0.00,meteohub,2013-03-16 21:18:00,
2013-03-16 17:23:00,76.3,76.3,29.92,West,270,8.0,13.0,0,0.00,,,0.00,meteohub,2013-03-16 21:23:00,
2013-03-16 17:28:00,76.5,76.5,29.92,North,0,4.0,12.0,0,0.00,,,0.00,meteohub,2013-03-16 21:28:00,
2013-03-16 17:33:00,76.5,76.5,29.92,WSW,248,4.0,11.0,0,0.00,,,0.00,meteohub,2013-03-16 21:33:00,
2013-03-16 17:39:00,77.0,77.0,29.92,West,270,8.0,11.0,0,0.00,,,0.00,meteohub,2013-03-16 21:39:00,
2013-03-16 17:44:00,77.0,77.0,29.91,West,270,5.0,11.0,0,0.00,,,0.00,meteohub,2013-03-16 21:44:00,
2013-03-16 17:49:00,77.0,77.0,29.92,West,270,4.0,11.0,0,0.00,,,0.00,meteohub,2013-03-16 21:49:00,
2013-03-16 17:54:00,76.8,76.8,29.92,NNE,23,7.0,10.0,0,0.00,,,0.00,meteohub,2013-03-16 21:54:00,
2013-03-16 17:59:00,76.3,76.3,29.92,West,270,6.0,10.0,0,0.00,,,0.00,meteohub,2013-03-16 21:59:00,
2013-03-16 18:04:00,76.3,76.3,29.92,West,270,4.0,10.0,0,0.00,,,0.00,meteohub,2013-03-16 22:04:00,
2013-03-16 18:09:00,76.5,76.5,29.92,West,270,10.0,10.0,0,0.00,,,0.00,meteohub,2013-03-16 22:09:00,
2013-03-16 18:14:00,75.7,75.7,29.92,West,270,9.0,10.0,0,0.00,,,0.00,meteohub,2013-03-16 22:14:00,
2013-03-16 18:19:00,75.0,75.0,29.93,North,0,6.0,11.0,0,0.00,,,0.00,meteohub,2013-03-16 22:19:00,
2013-03-16 18:24:00,75.0,75.0,29.92,West,270,3.0,11.0,0,0.00,,,0.00,meteohub,2013-03-16 22:24:00,
2013-03-16 18:29:00,74.7,74.7,29.93,West,270,5.0,9.0,0,0.00,,,0.00,meteohub,2013-03-16 22:29:00,
2013-03-16 18:34:00,74.5,74.5,29.93,NW,315,4.0,9.0,0,0.00,,,0.00,meteohub,2013-03-16 22:34:00,
2013-03-16 18:39:00,74.3,74.3,29.93,West,270,4.0,11.0,0,0.00,,,0.00,meteohub,2013-03-16 22:39:00,
2013-03-16 18:44:00,73.9,73.9,29.94,West,270,9.0,11.0,0,0.00,,,0.00,meteohub,2013-03-16 22:44:00,
2013-03-16 18:49:00,73.6,73.6,29.94,WSW,248,6.0,11.0,0,0.00,,,0.00,meteohub,2013-03-16 22:49:00,
2013-03-16 18:54:00,73.4,73.4,29.94,West,270,8.0,11.0,0,0.00,,,0.00,meteohub,2013-03-16 22:54:00,
2013-03-16 19:00:00,72.9,72.9,29.94,West,270,3.0,11.0,0,0.00,,,0.00,meteohub,2013-03-16 23:00:00,
2013-03-16 19:05:00,72.9,72.9,29.94,West,270,3.0,11.0,0,0.00,,,0.00,meteohub,2013-03-16 23:05:00,
2013-03-16 19:10:00,72.3,72.3,29.95,NW,315,4.0,9.0,0,0.00,,,0.00,meteohub,2013-03-16 23:10:00,
2013-03-16 19:15:00,71.8,71.8,29.95,West,270,4.0,6.0,0,0.00,,,0.00,meteohub,2013-03-16 23:15:00,
2013-03-16 19:20:00,71.4,71.4,29.95,West,270,4.0,8.0,0,0.00,,,0.00,meteohub,2013-03-16 23:20:00,
2013-03-16 19:25:00,71.1,71.1,29.96,NW,315,4.0,8.0,0,0.00,,,0.00,meteohub,2013-03-16 23:25:00,
2013-03-16 19:30:00,70.9,70.9,29.96,West,270,2.0,8.0,0,0.00,,,0.00,meteohub,2013-03-16 23:30:00,
2013-03-16 19:35:00,70.5,70.5,29.95,WNW,293,2.0,8.0,0,0.00,,,0.00,meteohub,2013-03-16 23:35:00,
2013-03-16 19:40:00,70.0,70.0,29.96,WNW,293,0.0,8.0,0,0.00,,,0.00,meteohub,2013-03-16 23:40:00,
2013-03-16 19:45:00,69.1,69.1,29.96,WNW,293,2.0,5.0,0,0.00,,,0.00,meteohub,2013-03-16 23:45:00,
2013-03-16 19:50:00,68.2,68.2,29.96,West,270,2.0,4.0,0,0.00,,,0.00,meteohub,2013-03-16 23:50:00,
2013-03-16 19:55:00,67.3,67.3,29.96,West,270,1.0,3.0,0,0.00,,,0.00,meteohub,2013-03-16 23:55:00,
2013-03-16 20:00:00,66.6,66.6,29.96,North,0,2.0,3.0,0,0.00,,,0.00,meteohub,2013-03-17 00:00:00,
2013-03-16 20:05:00,66.6,66.6,29.96,North,0,2.0,2.0,0,0.00,,,0.00,meteohub,2013-03-17 00:05:00,
2013-03-16 20:11:00,64.6,64.6,29.97,West,270,0.0,2.0,0,0.00,,,0.00,meteohub,2013-03-17 00:11:00,
2013-03-16 20:16:00,63.7,63.7,29.96,West,270,1.0,2.0,0,0.00,,,0.00,meteohub,2013-03-17 00:16:00,
2013-03-16 20:21:00,63.1,63.1,29.97,West,270,2.0,2.0,0,0.00,,,0.00,meteohub,2013-03-17 00:21:00,
2013-03-16 20:26:00,62.6,62.6,29.98,West,270,2.0,2.0,0,0.00,,,0.00,meteohub,2013-03-17 00:26:00,
2013-03-16 20:31:00,62.1,62.1,29.98,West,270,2.0,2.0,0,0.00,,,0.00,meteohub,2013-03-17 00:31:00,
2013-03-16 20:36:00,61.5,61.5,29.98,West,270,2.0,3.0,0,0.00,,,0.00,meteohub,2013-03-17 00:36:00,
2013-03-16 20:41:00,61.5,61.5,29.98,NW,315,2.0,4.0,0,0.00,,,0.00,meteohub,2013-03-17 00:41:00,
2013-03-16 20:47:00,61.0,61.0,29.98,NW,315,2.0,4.0,0,0.00,,,0.00,meteohub,2013-03-17 00:47:00,
2013-03-16 20:52:00,60.6,60.6,29.99,NW,315,2.0,4.0,0,0.00,,,0.00,meteohub,2013-03-17 00:52:00,
2013-03-16 20:57:00,60.6,60.6,29.99,NW,315,2.0,2.0,0,0.00,,,0.00,meteohub,2013-03-17 00:57:00,
2013-03-16 21:02:00,60.3,60.3,30.00,NW,315,2.0,2.0,0,0.00,,,0.00,meteohub,2013-03-17 01:02:00,
2013-03-16 21:07:00,60.3,60.3,30.00,NW,315,2.0,3.0,0,0.00,,,0.00,meteohub,2013-03-17 01:07:00,
2013-03-16 21:12:00,58.6,2.8,30.00,NW,315,0.0,3.0,10,0.00,,,0.00,meteohub,2013-03-17 01:12:00,
2013-03-16 21:17:00,57.9,8.1,30.01,NW,315,2.0,2.0,13,0.00,,,0.00,meteohub,2013-03-17 01:17:00,
2013-03-16 21:22:00,57.2,7.3,30.01,NW,315,1.0,2.0,13,0.00,,,0.00,meteohub,2013-03-17 01:22:00,
2013-03-16 21:27:00,56.8,8.8,30.01,NW,315,0.0,2.0,14,0.00,,,0.00,meteohub,2013-03-17 01:27:00,
2013-03-16 21:32:00,56.5,10.0,30.02,NW,315,0.0,2.0,15,0.00,,,0.00,meteohub,2013-03-17 01:32:00,
2013-03-16 21:37:00,55.9,10.9,30.02,NW,315,0.0,2.0,16,0.00,,,0.00,meteohub,2013-03-17 01:37:00,
2013-03-16 21:42:00,55.4,12.0,30.02,NW,315,0.0,2.0,17,0.00,,,0.00,meteohub,2013-03-17 01:42:00,
2013-03-16 21:47:00,54.9,12.7,30.03,NW,315,0.0,2.0,18,0.00,,,0.00,meteohub,2013-03-17 01:47:00,
2013-03-16 21:53:00,54.5,14.7,30.03,NW,315,0.0,0.0,20,0.00,,,0.00,meteohub,2013-03-17 01:53:00,
2013-03-16 21:58:00,54.0,14.4,30.03,NW,315,0.0,0.0,20,0.00,,,0.00,meteohub,2013-03-17 01:58:00,
2013-03-16 22:03:00,54.0,15.4,30.04,NW,315,0.0,0.0,21,0.00,,,0.00,meteohub,2013-03-17 02:03:00,
2013-03-16 22:08:00,53.4,17.1,30.04,NW,315,0.0,0.0,23,0.00,,,0.00,meteohub,2013-03-17 02:08:00,
2013-03-16 22:13:00,52.9,15.6,30.04,NW,315,0.0,0.0,22,0.00,,,0.00,meteohub,2013-03-17 02:13:00,
2013-03-16 22:18:00,52.5,17.2,30.04,NW,315,0.0,0.0,24,0.00,,,0.00,meteohub,2013-03-17 02:18:00,
2013-03-16 22:23:00,52.2,18.0,30.05,NW,315,0.0,0.0,25,0.00,,,0.00,meteohub,2013-03-17 02:23:00,
2013-03-16 22:28:00,52.0,17.8,30.05,NW,315,0.0,0.0,25,0.00,,,0.00,meteohub,2013-03-17 02:28:00,
2013-03-16 22:33:00,52.0,18.7,30.05,NW,315,0.0,0.0,26,0.00,,,0.00,meteohub,2013-03-17 02:33:00,
2013-03-16 22:38:00,51.6,18.3,30.05,NW,315,0.0,0.0,26,0.00,,,0.00,meteohub,2013-03-17 02:38:00,
2013-03-16 22:44:00,51.4,18.1,30.05,NW,315,0.0,0.0,26,0.00,,,0.00,meteohub,2013-03-17 02:44:00,
2013-03-16 22:49:00,51.3,18.9,30.05,NW,315,0.0,0.0,27,0.00,,,0.00,meteohub,2013-03-17 02:49:00,
2013-03-16 22:54:00,51.1,19.6,30.06,NW,315,0.0,0.0,28,0.00,,,0.00,meteohub,2013-03-17 02:54:00,
2013-03-16 22:59:00,50.9,20.3,30.06,NW,315,0.0,0.0,29,0.00,,,0.00,meteohub,2013-03-17 02:59:00,
2013-03-16 23:04:00,50.9,20.3,30.06,NW,315,0.0,0.0,29,0.00,,,0.00,meteohub,2013-03-17 03:04:00,
2013-03-16 23:09:00,50.4,19.8,30.06,NW,315,0.0,0.0,29,0.00,,,0.00,meteohub,2013-03-17 03:09:00,
2013-03-16 23:14:00,50.2,19.6,30.06,NW,315,0.0,0.0,29,0.00,,,0.00,meteohub,2013-03-17 03:14:00,
2013-03-16 23:19:00,50.0,20.3,30.07,NW,315,0.0,0.0,30,0.00,,,0.00,meteohub,2013-03-17 03:19:00,
2013-03-16 23:24:00,49.8,20.8,30.07,NW,315,0.0,0.0,31,0.00,,,0.00,meteohub,2013-03-17 03:24:00,
2013-03-16 23:29:00,49.6,21.6,30.07,NW,315,0.0,0.0,32,0.00,,,0.00,meteohub,2013-03-17 03:29:00,
2013-03-16 23:34:00,49.6,21.4,30.07,NW,315,0.0,0.0,32,0.00,,,0.00,meteohub,2013-03-17 03:34:00,
2013-03-16 23:39:00,49.3,21.7,30.07,NW,315,0.0,0.0,33,0.00,,,0.00,meteohub,2013-03-17 03:39:00,
2013-03-16 23:44:00,48.9,21.4,30.08,NW,315,0.0,0.0,33,0.00,,,0.00,meteohub,2013-03-17 03:44:00,
2013-03-16 23:49:00,48.7,21.9,30.07,NW,315,0.0,0.0,34,0.00,,,0.00,meteohub,2013-03-17 03:49:00,
2013-03-16 23:54:00,48.6,21.0,30.07,NW,315,0.0,0.0,33,0.00,,,0.00,meteohub,2013-03-17 03:54:00,
2013-03-16 23:59:00,48.4,21.6,30.08,NW,315,0.0,0.0,34,0.00,,,0.00,meteohub,2013-03-17 03:59:00,